Tracking 27122 objects as of 25-Mar-2023
HD Live streaming from Space Station
objects crossing your sky now

FENGYUN 1C DEB

Track FENGYUN 1C DEB now!
10-day predictions


NORAD ID: 35240
Int'l Code: 1999-025DQY
Perigee: 820.3 km
Apogee: 901.8 km
Inclination: 99.3 °
Period: 102.0 minutes
Semi major axis: 7232 km
RCS: 0.0037 m2 (small)
Launch date: May 10, 1999
Source: People's Republic of China (PRC)
Launch site: Taiyaun Space Center, China (TSC)

Note: This is SATELLITE DEBRIS
Your satellite tracking list
Your tracking list is empty




NASA's NSSDC Master Catalog

Two Line Element Set (TLE):
1 35240U 99025DQY 23082.17735767  .00004424  00000-0  24233-2 0  9997
2 35240  99.3334 344.9840 0056384  70.2939 290.4302 14.11603050790653
Source of the keplerian elements: AFSPC